DW5444 Weather Reports


time (UTC)temp
F
wind
direction
speed
knots
gust
knots
rain 1hr
in
rain 24hr
in
rain mn
in
humidity
%
barometer
mb
20260904050008 50 6 0.9 5.2 0.00 0.11 0.08 68 1008.8
20260904044508 49 136 1.7 4.3 0.00 0.15 0.08 69 1008.8
20260904043008 50 75 0.9 5.2 0.00 0.15 0.08 69 1008.6
20260904041509 50 130 3.5 5.2 0.00 0.15 0.08 69 1008.6
20260904040007 51 124 3.5 5.2 0.00 0.15 0.08 72 1008.7
20260904034505 51 132 3.5 4.3 0.00 0.25 0.08 71 1008.5
20260904033005 53 222 0.0 3.5 0.00 0.25 0.08 68 1008.2
20260904031503 53 42 2.6 3.5 0.00 0.25 0.08 67 1008.1
20260904030003 54 57 1.7 4.3 0.00 0.25 0.08 66 1008.0
20260904024508 55 52 3.5 5.2 0.00 0.28 0.08 65 1008.0
20260904023002 55 71 0.0 1.7 0.00 0.28 0.08 63 1008.1
20260904021501 56 72 3.5 7.0 0.00 0.28 0.08 63 1008.0
20260904020002 56 66 2.6 6.1 0.00 0.28 0.08 64 1008.1
20260904014615 56 48 3.5 5.2 0.00 0.30 0.08 64 1008.0
20260904013059 56 26 2.6 5.2 0.00 0.30 0.08 64 1008.0
20260904011559 56 9 2.6 6.1 0.00 0.30 0.08 63 1008.0
20260904010058 57 17 2.6 5.2 0.00 0.30 0.08 61 1008.0
20260904004557 57 312 3.5 7.8 0.00 0.33 0.08 59 1008.1
20260904003057 57 354 1.7 5.2 0.00 0.33 0.08 58 1008.1
20260904001556 58 55 2.6 6.1 0.00 0.33 0.08 57 1007.9
20260904000114 58 350 2.6 4.3 0.00 0.33 0.08 56 1008.1
20260903234555 58 335 2.6 5.2 0.00 0.34 0.08 54 1008.3
20260903233056 59 310 2.6 5.2 0.00 0.34 0.08 51 1008.4
20260903231555 60 114 0.0 2.6 0.00 0.34 0.08 48 1008.4
20260903230054 60 196 0.9 3.5 0.00 0.34 0.08 48 1008.6
20260903224610 60 181 1.7 3.5 0.00 0.34 0.08 47 1008.7
20260903223052 60 124 0.9 3.5 0.00 0.34 0.08 45 1008.8
20260903221551 60 250 0.9 4.3 0.00 0.34 0.08 47 1008.9
20260903220050 60 206 0.0 3.5 0.00 0.34 0.08 46 1009.0
20260903214607 60 205 1.7 3.5 0.00 0.34 0.08 45 1009.0
20260903213059 60 247 1.7 4.3 0.00 0.34 0.08 44 1008.9
20260903211546 60 55 0.9 6.1 0.00 0.34 0.08 45 1009.2
20260903210115 59 59 0.9 4.3 0.00 0.34 0.08 47 1009.1
20260903204549 59 175 1.7 7.8 0.00 0.34 0.08 44 1009.3
20260903203104 59 109 1.7 5.2 0.00 0.34 0.08 48 1009.4
20260903201545 59 132 1.7 7.0 0.00 0.34 0.08 49 1009.4
20260903200051 59 121 3.5 8.7 0.00 0.34 0.08 49 1009.8
20260903194539 60 159 3.5 6.1 0.00 0.34 0.08 51 1009.5
20260903193037 59 234 3.5 7.8 0.00 0.34 0.08 51 1009.6
20260903191538 58 240 0.9 5.2 0.00 0.34 0.08 52 1009.6
20260903190034 58 236 4.3 8.7 0.00 0.34 0.08 53 1009.8
20260903184529 57 281 3.5 7.8 0.00 0.34 0.08 56 1009.9
20260903183030 56 285 3.5 8.7 0.00 0.34 0.08 55 1010.0
20260903181525 56 270 4.3 8.7 0.00 0.34 0.08 57 1010.2
20260903180027 56 238 5.2 9.6 0.00 0.34 0.08 58 1010.2
20260903174530 56 256 6.1 11.3 0.00 0.34 0.08 58 1010.1
20260903173022 56 201 4.3 7.0 0.00 0.34 0.08 63 1010.1
20260903171521 56 198 4.3 8.7 0.00 0.34 0.08 65 1010.2
20260903170018 56 213 3.5 6.1 0.00 0.34 0.08 67 1010.1
20260903164515 54 206 2.6 6.1 0.00 0.34 0.08 69 1010.2
20260903163013 54 185 2.6 5.2 0.00 0.34 0.08 69 1010.3
20260903161511 53 133 1.7 4.3 0.00 0.34 0.08 69 1010.1
20260903160007 52 145 2.6 4.3 0.00 0.34 0.08 69 1010.1
20260903154505 52 121 2.6 6.1 0.00 0.34 0.08 70 1010.3
20260903153003 50 111 2.6 6.1 0.00 0.34 0.08 76 1010.4
20260903151502 50 160 2.6 6.1 0.00 0.34 0.08 75 1010.3
20260903150002 49 136 2.6 7.0 0.00 0.34 0.08 77 1010.3
20260903144606 49 88 1.7 5.2 0.00 0.34 0.08 78 1010.3
20260903143110 48 146 2.6 6.1 0.00 0.34 0.08 79 1010.2
20260903141605 47 85 2.6 4.3 0.00 0.34 0.08 83 1010.0
20260903140058 47 111 1.7 4.3 0.00 0.34 0.08 81 1010.0
20260903134558 0 0.0 0.0 0.00 0.34 0.08 1009.8
20260903133049 0 0.0 0.0 0.00 0.34 0.08 1009.7
20260903131546 0 0.0 0.0 0.00 0.34 0.08 1009.6
20260903130040 0 0.0 0.0 0.00 0.34 0.08 1009.6
20260903124542 0 0.0 0.0 0.00 0.34 0.08 1009.6
20260903123037 0 0.0 0.0 0.00 0.34 0.08 1009.5
20260903121526 0 0.0 0.0 0.00 0.34 0.08 1009.6
20260903120023 0 0.0 0.0 0.00 0.34 0.08 1009.4
20260903114518 0 0.0 0.0 0.00 0.34 0.08 1009.4
20260903113014 0 0.0 0.0 0.00 0.34 0.08 1009.4
20260903111509 0 0.0 0.0 0.00 0.34 0.08 1009.3
20260903110007 0 0.0 0.0 0.00 0.34 0.08 1009.4
20260903104503 49 241 1.7 6.1 0.00 0.34 0.08 87 1009.4
20260903103103 49 247 3.5 8.7 0.00 0.34 0.08 87 1009.3
20260903101607 50 211 2.6 6.1 0.00 0.34 0.08 89 1009.1
20260903100055 50 236 4.3 9.6 0.00 0.34 0.08 90 1009.0
20260903094556 50 229 2.6 5.2 0.00 0.34 0.08 92 1009.0
20260903093106 50 225 3.5 7.8 0.01 0.34 0.08 89 1008.7
20260903091550 50 146 1.7 4.3 0.01 0.34 0.08 90 1008.5
20260903090054 50 108 0.9 2.6 0.04 0.34 0.08 90 1008.5
20260903084548 50 124 0.9 2.6 0.06 0.34 0.08 90 1008.7
20260903083045 50 149 0.9 1.7 0.06 0.33 0.07 90 1008.7
20260903081544 50 146 0.9 2.6 0.06 0.32 0.06 90 1008.6
20260903080041 50 220 0.0 1.7 0.04 0.30 0.04 90 1008.4
20260903074540 50 208 0.9 1.7 0.02 0.28 0.02 90 1008.5
20260903073040 50 213 0.9 1.7 0.01 0.27 0.01 89 1008.3
20260903071535 50 214 0.9 4.3 0.00 0.26 0.00 87 1008.1
20260903070032 51 222 0.9 4.3 0.00 0.26 0.00 86 1007.9
20260903064531 51 208 0.9 4.3 0.00 0.26 0.26 85 1007.8
20260903063103 51 267 5.2 7.8 0.01 0.26 0.26 85 1007.7
20260903061530 51 95 2.6 6.1 0.02 0.26 0.26 84 1007.7
20260903060030 51 95 1.7 5.2 0.03 0.26 0.26 86 1007.6
20260903054529 51 132 2.6 5.2 0.05 0.26 0.26 87 1007.8
20260903053028 51 104 1.7 7.0 0.05 0.25 0.25 88 1007.8
20260903051528 50 90 3.5 6.1 0.04 0.24 0.24 87 1008.0